Weather reports worldwide

Advertisment
Kinloss, United Kingdom (3066): temperature & dewpoint: 17.03.2019 09:00:00 - 23.03.2019 09:00:00 (GMT)Kinloss, United Kingdom (3066): temperature -20cm & temperature -100cm: 17.03.2019 09:00:00 - 23.03.2019 09:00:00 (GMT)Kinloss, United Kingdom (3066): wind speed & gusts: 17.03.2019 09:00:00 - 23.03.2019 09:00:00 (GMT)Kinloss, United Kingdom (3066): wind direction: 17.03.2019 09:00:00 - 23.03.2019 09:00:00 (GMT)Kinloss, United Kingdom (3066): reduced air pressure: 17.03.2019 09:00:00 - 23.03.2019 09:00:00 (GMT)Kinloss, United Kingdom (3066): visibility: 17.03.2019 09:00:00 - 23.03.2019 09:00:00 (GMT)Kinloss, United Kingdom (3066): sunshine duration: 17.03.2019 09:00:00 - 23.03.2019 09:00:00 (GMT)Kinloss, United Kingdom (3066): precipitation: 17.03.2019 09:00:00 - 23.03.2019 09:00:00 (GMT)
Date & Time tt [°C] td [°C] tt -20cm [°C] tt -100cm [°C] ff [km/h] ff [kn] fx [km/h] fx [kn] dd ppp [hPa] vv [km] sd [min] rr [mm]
23.03.2019 09:00:00 5,7 0,5 7,2 6,2 34 18 54 29 WSW 1024,7 27 60 0,0
23.03.2019 08:00:00 4,3 0,7 - - 24 13 52 28 SW 1024,5 24 54 0,0
23.03.2019 07:00:00 3,5 0,2 - - 34 18 55 30 WSW 1023,3 40 12 0,0
23.03.2019 06:00:00 3,3 -0,1 - - 29 16 59 32 WSW 1022,1 35 0 0,0
23.03.2019 05:00:00 3,7 -0,2 - - 41 22 55 30 WSW 1021,4 40 0 0,0
23.03.2019 04:00:00 3,6 -0,3 - - 31 17 48 26 SW 1020,9 22 0 0,0
23.03.2019 03:00:00 3,6 -1,1 - - 31 17 50 27 SW 1020,4 22 0 0,0
23.03.2019 02:00:00 3,9 -0,5 - - 37 20 48 26 SW 1019,9 23 0 0,0
23.03.2019 01:00:00 4,0 -0,6 - - 34 18 46 25 SW 1019,8 26 0 0,0
23.03.2019 00:00:00 4,4 0,1 - - 22 12 46 25 WSW 1019,3 29 - 0,0
22.03.2019 23:00:00 4,6 0,8 - - 26 14 - - WSW 1018,6 25 0 0,0
22.03.2019 22:00:00 4,6 0,3 - - 24 13 48 26 WSW 1017,8 22 0 0,0
22.03.2019 21:00:00 5,4 0,6 - - 34 18 50 27 WSW 1016,6 21 0 0,0
22.03.2019 20:00:00 4,6 2,8 - - 31 17 50 27 WSW 1016,0 11 0 0,2
22.03.2019 19:00:00 6,3 1,1 - - 39 21 68 37 WSW 1014,8 40 0 0,0
22.03.2019 18:00:00 8,7 -0,4 - - 42 23 63 34 SW 1012,9 22 60 0,0
22.03.2019 17:00:00 8,8 1,4 - - 44 24 61 33 WSW 1012,3 30 48 0,0
22.03.2019 16:00:00 10,7 2,5 - - 35 19 61 33 W 1012,0 29 36 0,0
22.03.2019 15:00:00 10,6 4,7 - - 44 24 67 36 WSW 1011,7 24 48 0,0
22.03.2019 14:00:00 11,6 4,7 - - 42 23 59 32 SW 1011,2 30 36 0,0
22.03.2019 13:00:00 11,6 5,9 - - 41 22 70 38 WSW 1010,8 45 24 0,2
22.03.2019 12:00:00 13,0 6,6 - - 54 29 72 39 SW 1010,0 50 18 0,0
22.03.2019 11:00:00 13,2 7,1 - - 31 17 63 34 SW 1009,8 35 36 0,0
22.03.2019 10:00:00 12,8 7,0 - - 44 24 67 36 SSW 1009,6 35 24 0,0
22.03.2019 09:00:00 11,9 6,2 7,4 6,2 34 18 63 34 SSW 1010,6 50 12 0,0
22.03.2019 08:00:00 11,4 5,7 - - 35 19 63 34 SSW 1011,3 50 0 0,0
22.03.2019 07:00:00 11,2 5,8 - - 28 15 59 32 SSW 1012,0 50 0 0,0
22.03.2019 06:00:00 11,0 5,8 - - 21 11 - - S 1013,2 50 0 0,0
22.03.2019 05:00:00 11,1 5,9 - - 18 10 52 28 S 1014,3 40 0 0,0
22.03.2019 04:00:00 10,8 6,0 - - 22 12 48 26 SSW 1015,1 17 0 0,0
22.03.2019 03:00:00 11,0 5,9 - - 22 12 - - SW 1016,3 15 0 0,0
22.03.2019 02:00:00 11,5 6,1 - - 21 11 - - SSW 1017,0 16 0 0,0
22.03.2019 01:00:00 11,9 7,1 - - 26 14 - - SSW 1018,4 45 0 0,0
22.03.2019 00:00:00 12,3 7,8 - - 26 14 48 26 SSW 1019,6 50 - 0,0
21.03.2019 23:00:00 11,9 8,2 - - 13 7 - - SSW 1020,7 50 0 0,0
21.03.2019 22:00:00 10,9 7,4 - - 13 7 - - SSE 1022,0 50 0 0,0
21.03.2019 21:00:00 9,9 8,0 - - 5 3 - - ESE 1023,5 50 0 0,0
21.03.2019 20:00:00 10,3 8,7 - - 9 5 - - ESE 1024,1 50 0 0,0
21.03.2019 19:00:00 10,5 8,8 - - 9 5 - - ESE 1024,8 45 0 0,0
21.03.2019 18:00:00 10,6 8,7 - - 13 7 - - ESE 1025,1 50 12 0,0
21.03.2019 17:00:00 11,1 8,2 - - 15 8 - - ESE 1026,3 50 0 0,0
21.03.2019 16:00:00 11,1 7,7 - - 15 8 - - E 1027,5 50 54 0,0
21.03.2019 15:00:00 11,4 8,8 - - 9 5 - - NNE 1027,6 45 12 0,0
21.03.2019 14:00:00 11,3 8,6 - - 11 6 - - ENE 1027,1 45 36 0,0
21.03.2019 13:00:00 11,0 9,4 - - 11 6 - - E 1027,0 30 0 0,0
21.03.2019 12:00:00 9,5 8,5 - - 13 7 - - E 1027,5 30 18 0,0
21.03.2019 11:00:00 8,5 7,9 - - 5 3 - - SE 1027,3 6 0 0,0
21.03.2019 10:00:00 7,9 6,9 - - 8 4 - - NNE 1026,8 9 0 0,0
21.03.2019 09:00:00 8,2 7,4 6,9 6,0 13 7 - - NNW 1025,7 20 0 0,2
21.03.2019 08:00:00 9,2 9,0 - - 8 4 - - W 1024,4 3,9 0 1,2
21.03.2019 07:00:00 9,0 8,7 - - 22 12 - - NW 1022,7 3,4 0 2,4
21.03.2019 06:00:00 10,5 9,5 - - 21 11 - - WSW 1021,1 3,7 0 0,2
21.03.2019 05:00:00 11,1 9,3 - - 26 14 - - WSW 1019,9 7 0 0,0
21.03.2019 04:00:00 11,8 8,8 - - 31 17 48 26 SW 1019,3 25 0 0,0
21.03.2019 03:00:00 12,3 8,5 - - 35 19 54 29 WSW 1018,6 35 0 0,0
21.03.2019 02:00:00 12,4 8,4 - - 29 16 - - WSW 1018,5 35 0 0,0
21.03.2019 01:00:00 12,5 8,3 - - 26 14 - - WSW 1018,8 50 0 0,0
21.03.2019 00:00:00 12,3 8,2 - - 31 17 46 25 SW 1018,2 45 - 0,0
20.03.2019 23:00:00 12,7 8,2 - - 29 16 54 29 WSW 1018,2 50 0 0,0
20.03.2019 22:00:00 12,6 7,8 - - 41 22 68 37 SW 1017,3 30 0 0,0
20.03.2019 21:00:00 12,7 8,2 - - 44 24 76 41 SW 1016,8 40 0 0,0
20.03.2019 20:00:00 13,6 8,8 - - 54 29 76 41 SW 1017,0 50 0 0,0
20.03.2019 19:00:00 13,8 8,5 - - 37 20 57 31 SW 1016,8 50 0 0,0
20.03.2019 18:00:00 14,0 8,1 - - 34 18 59 32 SW 1017,3 50 36 0,0
20.03.2019 17:00:00 14,6 8,1 - - 44 24 67 36 SW 1017,7 35 36 0,0
20.03.2019 16:00:00 15,1 8,1 - - 39 21 59 32 SW 1018,5 45 60 0,0
20.03.2019 15:00:00 15,8 8,5 - - 34 18 50 27 SW 1019,0 50 18 0,0
20.03.2019 14:00:00 14,2 7,7 - - 28 15 46 25 SW 1020,2 50 0 0,0
20.03.2019 13:00:00 13,0 7,6 - - 26 14 59 32 WSW 1021,4 30 18 0,0
20.03.2019 12:00:00 12,7 6,4 - - 35 19 52 28 WSW 1022,0 35 54 0,0
20.03.2019 11:00:00 11,6 6,0 - - 22 12 - - WSW 1022,4 35 18 0,0
20.03.2019 10:00:00 10,7 6,2 - - 15 8 - - WSW 1022,9 20 0 0,0
20.03.2019 09:00:00 9,7 6,1 6,2 6,0 15 8 - - SW 1023,1 17 0 0,0
20.03.2019 08:00:00 8,9 5,6 - - 15 8 - - SW 1022,8 12 0 0,0
20.03.2019 07:00:00 8,7 5,6 - - 9 5 - - S 1022,6 17 0 0,0
20.03.2019 06:00:00 8,5 5,7 - - 21 11 - - WSW 1021,9 21 0 0,0
20.03.2019 05:00:00 7,9 6,3 - - 15 8 - - SW 1021,5 17 0 0,0
20.03.2019 04:00:00 7,9 6,8 - - 13 7 - - W 1021,3 4,4 0 0,0
20.03.2019 03:00:00 8,9 5,1 - - 16 9 - - SW 1020,5 14 0 0,0
20.03.2019 02:00:00 8,6 4,3 - - 8 4 - - WSW 1020,5 15 0 0,0
20.03.2019 01:00:00 7,8 4,1 - - 18 10 - - SW 1020,5 13 0 0,0
20.03.2019 00:00:00 8,8 4,3 - - 26 14 46 25 WSW 1020,2 15 - 0,0
19.03.2019 23:00:00 8,7 5,9 - - 13 7 - - W 1019,9 30 0 0,0
19.03.2019 22:00:00 9,6 6,7 - - 8 4 - - W 1019,5 40 0 0,0
19.03.2019 21:00:00 9,9 7,0 - - 15 8 - - SW 1018,2 50 0 0,0
19.03.2019 20:00:00 10,5 7,2 - - 18 10 - - SW 1017,6 50 0 0,0
19.03.2019 19:00:00 10,6 7,3 - - 16 9 46 25 SW 1017,0 35 0 0,0
19.03.2019 18:00:00 11,6 7,3 - - 34 18 54 29 WSW 1016,4 50 0 0,0
19.03.2019 17:00:00 12,8 7,2 - - 34 18 54 29 SW 1015,6 50 18 0,0
19.03.2019 16:00:00 12,9 7,9 - - 28 15 54 29 SW 1015,5 40 0 0,0
19.03.2019 15:00:00 12,8 7,7 - - 26 14 54 29 SW 1014,9 50 0 0,0
19.03.2019 14:00:00 13,0 7,4 - - 28 15 52 28 SW 1014,9 40 18 0,0
19.03.2019 13:00:00 13,6 6,9 - - 34 18 55 30 WSW 1014,9 45 54 0,0
19.03.2019 12:00:00 11,9 6,1 - - 34 18 48 26 SW 1014,8 50 36 0,0
19.03.2019 11:00:00 11,0 5,8 - - 24 13 - - SW 1015,7 19 0 0,0
19.03.2019 10:00:00 9,7 5,4 - - 21 11 - - SW 1016,3 45 0 0,0
19.03.2019 09:00:00 8,7 6,1 5,7 6,0 21 11 - - SW 1016,3 50 0 0,0
19.03.2019 08:00:00 7,9 5,5 - - 15 8 - - SSW 1016,9 10 0 0,0
19.03.2019 07:00:00 7,3 4,8 - - 11 6 - - SW 1017,3 50 0 0,0
19.03.2019 06:00:00 7,0 3,9 - - 21 11 - - SW 1017,2 50 0 0,0
19.03.2019 05:00:00 7,0 4,1 - - 9 5 - - SSW 1017,4 50 0 0,0
19.03.2019 04:00:00 7,0 3,9 - - 16 9 - - SSW 1017,4 50 0 0,0
19.03.2019 03:00:00 6,0 3,5 - - 11 6 - - SSW 1018,1 45 0 0,0
19.03.2019 02:00:00 5,7 3,3 - - 16 9 - - SSW 1018,5 50 0 0,0
19.03.2019 01:00:00 5,3 3,2 - - 13 7 - - SSW 1018,8 50 0 0,0
19.03.2019 00:00:00 4,1 2,4 - - 8 4 - - SW 1018,9 50 - 0,0
18.03.2019 23:00:00 4,1 2,2 - - 5 3 - - SSW 1018,7 50 0 0,0
18.03.2019 22:00:00 4,8 2,8 - - 8 4 - - SSW 1018,6 50 0 0,0
18.03.2019 21:00:00 5,0 2,8 - - 9 5 - - SSW 1018,5 50 0 0,0
18.03.2019 20:00:00 5,5 2,3 - - 9 5 - - SW 1018,2 50 0 0,0
18.03.2019 19:00:00 7,4 2,7 - - 9 5 - - S 1017,6 50 0 0,0
18.03.2019 18:00:00 7,6 2,9 - - 8 4 - - E 1017,1 22 12 0,0
18.03.2019 17:00:00 8,4 3,7 - - 5 3 - - ENE 1016,5 12 18 0,0
18.03.2019 16:00:00 8,3 2,7 - - 9 5 - - NNE 1016,3 21 12 0,0
18.03.2019 15:00:00 7,8 2,7 - - 11 6 - - NNE 1016,0 18 36 0,0
18.03.2019 14:00:00 8,0 2,8 - - 9 5 - - N 1015,5 30 30 0,0
18.03.2019 13:00:00 9,0 2,3 - - 8 4 - - WSW 1015,3 45 48 0,0
18.03.2019 12:00:00 9,0 2,1 - - 9 5 - - SW 1015,0 22 60 0,0
18.03.2019 11:00:00 8,1 1,7 - - 8 4 - - WSW 1015,1 27 60 0,0
18.03.2019 10:00:00 7,0 1,8 - - 11 6 - - SSW 1014,7 35 60 0,0
18.03.2019 09:00:00 4,9 0,9 5,7 6,0 11 6 - - SSW 1014,3 26 48 0,0
18.03.2019 08:00:00 2,2 -0,5 - - 9 5 - - SSW 1013,7 26 6 0,0
18.03.2019 07:00:00 -0,4 -2,3 - - 5 3 - - SW 1013,2 30 0 0,0
18.03.2019 06:00:00 0,3 -1,8 - - 8 4 - - SSW 1012,8 29 0 0,0
18.03.2019 05:00:00 0,6 -2,0 - - 8 4 - - SW 1012,8 40 0 0,0
18.03.2019 04:00:00 0,8 -2,1 - - 11 6 - - SW 1012,6 35 0 0,0
18.03.2019 03:00:00 0,8 -1,9 - - 11 6 - - SW 1012,5 30 0 0,0
18.03.2019 02:00:00 1,4 -1,3 - - 9 5 - - SW 1012,2 30 0 0,0
18.03.2019 01:00:00 2,3 -0,8 - - 5 3 - - SW 1012,0 30 0 0,0
18.03.2019 00:00:00 2,9 0,7 - - 16 9 - - W 1011,5 30 - 0,0
17.03.2019 23:00:00 3,3 0,8 - - 11 6 - - W 1011,1 21 0 0,0
17.03.2019 22:00:00 4,0 0,5 - - 21 11 - - W 1010,3 27 0 0,0
17.03.2019 21:00:00 4,0 0,6 - - 24 13 - - WNW 1009,5 18 0 0,0
17.03.2019 20:00:00 3,8 0,0 - - 18 10 - - WNW 1008,9 15 0 0,0
17.03.2019 19:00:00 4,2 0,2 - - 22 12 - - WNW 1007,6 11 0 0,0
17.03.2019 18:00:00 5,1 0,6 - - 24 13 - - NW 1006,3 15 18 0,0
17.03.2019 17:00:00 5,6 2,3 - - 24 13 55 30 WNW 1005,0 13 12 0,2
17.03.2019 16:00:00 5,0 2,5 - - 28 15 46 25 NW 1003,5 12 24 0,2
17.03.2019 15:00:00 5,3 2,8 - - 35 19 59 32 NNW 1002,4 14 0 0,2
17.03.2019 14:00:00 3,9 1,7 - - 35 19 55 30 NW 1001,1 2,5 18 0,2
17.03.2019 13:00:00 4,1 1,6 - - 39 21 65 35 NNW 999,1 18 24 0,4
17.03.2019 12:00:00 4,0 3,0 - - 21 11 52 28 NW 997,4 12 30 0,6
17.03.2019 11:00:00 5,0 3,6 - - 24 13 46 25 WNW 995,7 7 6 0,2
17.03.2019 10:00:00 4,5 3,2 - - 31 17 - - WNW 994,1 8 0 0,6
17.03.2019 09:00:00 4,4 2,3 5,7 6,0 28 15 - - W 992,3 45 0 0,0

tt = temperature
td = dewpoint
tt -20cm = temperature -20cm
tt -100cm = temperature -100cm
ff = wind speed
fx = gusts
dd = wind direction
ppp = reduced air pressure
vv = visibility
sd = sunshine duration
rr = precipitation

Next stations